Riverside March, CA

4:47 PM PST on January 18, 2018 (GMT -0800)
March Air Reserve Base

Weather History for KRIV - April, 2013

Change the Weather History Date:

Wednesday, April 3, 2013

  Actual Average Record
Temperature  
Mean Temperature 64 °F -  
Max Temperature 84 °F 65 °F 84 °F (2013)
Min Temperature 43 °F 42 °F 35 °F (1999)
Degree Days  
Heating Degree Days 2    
Growing Degree Days 14 (Base 50)    
Moisture  
Dew Point 49 °F    
Average Humidity 65    
Maximum Humidity 95    
Minimum Humidity 32    
Precipitation  
Precipitation 0.00 in - - ()
Sea Level Pressure  
Sea Level Pressure 30.03 in    
Wind  
Wind Speed 3 mph (WNW)    
Max Wind Speed 14 mph    
Max Gust Speed -    
Visibility 10 miles    
Events      
Averages and records for this station are not official NWS values.
T = Trace of Precipitation, MM = Missing Value Source: NWS Daily Summary

Daily Weather History Graph

Daily Weather History Graph

Search for Another Location

Airport or City:

Trip Planner

Search our weather history database for the weather conditions in past years. The results will help you decide how hot, cold, wet, or windy it might be!

Date:

Astronomy

Apr. 03, 2013 Rise Set
Actual Time 6:33 AM PDT 7:11 PM PDT
Civil Twilight 6:08 AM PDT 7:36 PM PDT
Nautical Twilight 5:38 AM PDT 8:06 PM PDT
Astronomical Twilight 5:08 AM PDT 8:36 PM PDT
Moon 2:00 AM PDT (4/3) 12:45 PM PDT (4/3)
Length of Visible Light 13h 28m
Length of Day
12h 38m
Last Quarter, 43% of the Moon is Illuminated
Apr 3
Last Quarter
Apr 10
New
Apr 18
First Quarter
Apr 25
Full
May 2
Last Quarter

Hourly Weather History & Observations

Time (PDT) Temp. Heat Index Dew Point Humidity Pressure Visibility Wind Dir Wind Speed Gust Speed Precip Events Conditions
12:58 AM 49.8 °F - 46.6 °F 89% 30.05 in 10.0 mi WSW 2.3 mph - N/A   Clear
1:58 AM 47.5 °F - 44.6 °F 90% 30.05 in 10.0 mi NW 1.2 mph - N/A   Clear
2:58 AM 47.8 °F - 46.4 °F 95% 30.05 in 10.0 mi Calm Calm - N/A   Clear
3:58 AM 43.5 °F - 41.4 °F 92% 30.03 in 10.0 mi Calm Calm - N/A   Clear
4:58 AM 43.5 °F - 41.0 °F 91% 30.03 in 10.0 mi Calm Calm - N/A   Clear
5:58 AM 45.0 °F - 43.5 °F 95% 30.04 in 10.0 mi Calm Calm - N/A   Clear
6:58 AM 44.8 °F - 43.3 °F 95% 30.06 in 10.0 mi Calm Calm - N/A   Scattered Clouds
7:58 AM 54.1 °F - 50.5 °F 88% 30.08 in 10.0 mi Calm Calm - N/A   Partly Cloudy
8:58 AM 59.7 °F - 52.9 °F 78% 30.08 in 10.0 mi Calm Calm - N/A   Partly Cloudy
9:58 AM 71.4 °F - 60.8 °F 69% 30.06 in 10.0 mi Variable 1.2 mph - 0.00 in   Clear
10:58 AM 72.5 °F - 55.9 °F 56% 30.05 in 10.0 mi Variable 2.3 mph - N/A   Partly Cloudy
11:58 AM 77.0 °F - 55.2 °F 47% 30.04 in 10.0 mi NW 8.1 mph - N/A   Partly Cloudy
12:58 PM 80.1 °F - 51.4 °F 37% 30.02 in 10.0 mi NW 8.1 mph - N/A   Partly Cloudy
1:58 PM 82.9 °F - 50.4 °F 32% 30.00 in 10.0 mi North 5.8 mph - N/A   Partly Cloudy
2:58 PM 84.2 °F - 52.2 °F 33% 29.98 in 10.0 mi NW 9.2 mph - N/A   Scattered Clouds
3:20 PM 84.2 °F - 51.8 °F 33% 30.00 in 10.0 mi West 12.7 mph - N/A   Scattered Clouds
3:58 PM 82.0 °F 81.4 °F 54.5 °F 39% 29.98 in 10.0 mi WNW 12.7 mph - N/A   Partly Cloudy
4:58 PM 79.9 °F - 52.5 °F 39% 29.98 in 10.0 mi WNW 13.8 mph - N/A   Partly Cloudy
5:58 PM 75.7 °F - 49.3 °F 39% 29.99 in 10.0 mi NW 13.8 mph - N/A   Clear
6:58 PM 72.7 °F - 47.7 °F 41% 30.00 in 10.0 mi NW 6.9 mph - N/A   Clear
7:58 PM 66.7 °F - 47.1 °F 49% 30.01 in 10.0 mi West 3.5 mph - N/A   Clear
8:58 PM 60.4 °F - 44.6 °F 56% 30.04 in 10.0 mi NW 4.6 mph - N/A   Clear
9:58 PM 59.0 °F - 50.7 °F 74% 30.05 in 10.0 mi NW 6.9 mph - N/A   Clear
10:58 PM 56.8 °F - 49.5 °F 76% 30.05 in 10.0 mi WNW 2.3 mph - N/A   Clear
11:58 PM 56.7 °F - 52.3 °F 85% 30.06 in 10.0 mi WNW 5.8 mph - N/A   Clear